DW0269 Weather Reports


Display with metric or nautical units.
time (UTC)temp
F
wind
direction
speed
MPH
gust
MPH
rain 1hr
in
rain 24hr
in
rain mn
in
humidity
%
barometer
mb
20260901075144 67 66 5.0 18.0 0.00 0.00 0.00 96 948.8
20260901074643 68 81 5.0 18.0 0.00 0.00 0.00 96 949.2
20260901074142 68 94 8.0 18.0 0.00 0.00 0.00 96 949.3
20260901073641 68 76 6.0 15.0 0.00 0.00 0.00 95 949.3
20260901073140 68 78 6.0 15.0 0.00 0.00 0.00 95 949.2
20260901072639 68 76 5.0 12.0 0.00 0.00 0.00 95 949.1
20260901072138 68 90 6.0 13.0 0.00 0.00 0.00 95 949.2
20260901071637 68 80 6.0 13.0 0.00 0.00 0.00 94 949.6
20260901071135 67 81 5.0 13.0 0.00 0.00 0.00 94 949.1
20260901070118 67 57 6.0 14.0 0.00 0.00 0.00 94 949.3
20260901065617 67 56 5.0 16.0 0.00 0.00 0.00 94 948.9
20260901065116 67 56 7.0 16.0 0.00 0.00 0.00 94 948.7
20260901064615 67 53 5.0 16.0 0.00 0.00 0.00 94 948.9
20260901064114 67 65 7.0 15.0 0.00 0.00 0.00 94 949.1
20260901063613 67 64 6.0 15.0 0.00 0.00 0.00 94 948.9
20260901063112 67 59 5.0 13.0 0.00 0.00 0.00 94 949.0
20260901062611 67 52 6.0 13.0 0.00 0.00 0.00 93 948.9
20260901061554 67 56 5.0 16.0 0.00 0.00 0.00 94 949.0
20260901061053 67 73 5.0 16.0 0.00 0.00 0.00 95 949.4
20260901060552 67 53 4.0 15.0 0.00 0.00 0.00 94 948.9
20260901060051 67 56 5.0 15.0 0.00 0.00 0.00 94 948.9
20260901055549 67 56 6.0 15.0 0.00 0.00 0.00 94 948.6
20260901055048 67 55 6.0 12.0 0.00 0.00 0.00 95 948.4
20260901054547 67 59 6.0 12.0 0.00 0.00 0.00 95 948.5
20260901054046 67 64 5.0 13.0 0.00 0.00 0.00 95 948.5
20260901053545 67 48 6.0 13.0 0.00 0.00 0.00 95 948.5
20260901052528 66 48 7.0 19.0 0.00 0.00 0.00 94 948.5
20260901050955 67 50 6.0 13.0 0.00 0.00 0.00 95 948.1
20260901050454 67 53 6.0 13.0 0.00 0.00 0.00 95 948.1
20260901045953 67 52 6.0 13.0 0.00 0.00 0.00 96 948.1
20260901045452 67 63 5.0 14.0 0.00 0.00 0.00 96 948.2
20260901044951 67 59 5.0 14.0 0.00 0.00 0.00 95 948.1
20260901044450 67 47 5.0 13.0 0.00 0.00 0.00 95 948.1
20260901043433 67 48 5.0 13.0 0.00 0.00 0.00 95 948.1
20260901042932 67 50 5.0 13.0 0.00 0.00 0.00 95 948.0
20260901042431 67 52 6.0 13.0 0.00 0.00 0.00 95 948.2
20260901041930 67 51 6.0 18.0 0.00 0.00 0.00 95 948.0
20260901041429 67 44 6.0 18.0 0.00 0.00 0.00 95 947.8
20260901040928 67 47 6.0 13.0 0.00 0.00 0.00 95 947.8
20260901040427 67 47 5.0 13.0 0.00 0.00 0.00 95 947.8
20260901035926 67 42 7.0 13.0 0.00 0.00 0.00 95 947.8
20260901035425 67 42 7.0 13.0 0.00 0.00 0.00 95 948.0
20260901034408 67 42 8.0 15.0 0.00 0.00 0.00 95 947.3
20260901033351 67 41 6.0 14.0 0.00 0.00 0.00 94 947.4
20260901032334 67 42 6.0 13.0 0.00 0.00 0.00 95 947.6
20260901025729 69 52 7.0 14.0 0.00 0.00 0.00 95 947.4
20260901024712 68 46 6.0 14.0 0.00 0.00 0.00 95 947.3
20260901024211 67 44 7.0 14.0 0.00 0.00 0.00 94 947.3
20260901023711 68 48 7.0 14.0 0.00 0.00 0.00 94 947.1
20260901023209 68 45 8.0 15.0 0.00 0.00 0.00 94 947.2
20260901022152 69 42 7.0 15.0 0.00 0.00 0.00 93 947.2
20260901021652 69 43 9.0 15.0 0.00 0.00 0.00 92 947.2
20260901021150 70 46 8.0 15.0 0.00 0.00 0.00 92 947.4
20260901020648 70 44 6.0 15.0 0.00 0.00 0.00 92 947.3
20260901015631 71 47 7.0 14.0 0.00 0.00 0.00 90 947.2
20260901015130 72 56 5.0 13.0 0.00 0.00 0.00 89 947.4
20260901014628 73 56 5.0 14.0 0.00 0.00 0.00 89 947.1
20260901014126 73 57 6.0 14.0 0.00 0.00 0.00 88 947.3
20260901013625 73 41 6.0 14.0 0.00 0.00 0.00 88 947.2
20260901013124 74 38 7.0 14.0 0.00 0.00 0.00 86 947.4
20260901012623 74 40 6.0 14.0 0.00 0.00 0.00 86 947.5
20260901012122 74 45 5.0 13.0 0.00 0.00 0.00 86 947.3
20260901011106 74 67 6.0 13.0 0.00 0.00 0.00 85 947.6
20260901010047 75 58 5.0 16.0 0.00 0.00 0.00 85 947.9
20260901005031 74 53 5.0 13.0 0.00 0.00 0.00 84 947.4
20260901004530 74 43 7.0 13.0 0.00 0.00 0.00 83 947.8
20260901004029 74 48 7.0 13.0 0.00 0.00 0.00 85 947.7
20260901003012 74 42 6.0 14.0 0.00 0.00 0.00 86 947.8
20260901002510 74 53 7.0 14.0 0.00 0.00 0.00 87 947.6
20260901002009 73 45 8.0 14.0 0.00 0.00 0.00 87 948.0
20260901001508 73 44 7.0 14.0 0.00 0.00 0.00 88 947.8
20260901001005 73 48 7.0 13.0 0.00 0.00 0.00 87 947.8
20260901000504 74 52 7.0 15.0 0.00 0.00 0.00 87 947.8
20260901000004 74 49 8.0 15.0 0.00 0.00 0.00 87 948.0
20260831235503 74 50 5.0 13.0 0.00 0.00 0.00 89 947.9
20260831235001 74 50 6.0 15.0 0.00 0.00 0.00 88 948.1
20260831234501 73 56 7.0 15.0 0.00 0.00 0.00 90 948.1
20260831234000 73 47 6.0 14.0 0.00 0.00 0.00 89 948.4
20260831233459 73 63 5.0 14.0 0.00 0.00 0.00 88 948.3
20260831232441 72 73 7.0 16.0 0.00 0.00 0.00 90 948.5
20260831231941 72 75 7.0 15.0 0.00 0.00 0.00 91 948.5
20260831231440 71 78 5.0 13.0 0.00 0.00 0.00 94 948.5
20260831230939 71 62 5.0 15.0 0.00 0.00 0.00 92 948.7
20260831230438 71 71 7.0 16.0 0.00 0.00 0.00 93 948.7
20260831225937 71 73 7.0 18.0 0.00 0.00 0.00 93 948.7
20260831225436 71 88 7.0 18.0 0.00 0.00 0.00 92 948.6
20260831224419 71 77 6.0 15.0 0.00 0.00 0.00 93 948.6
20260831223918 71 91 8.0 15.0 0.00 0.00 0.00 93 948.6
20260831223416 70 75 8.0 16.0 0.00 0.00 0.00 93 948.5
20260831222915 70 84 9.0 18.0 0.00 0.00 0.00 94 948.9
20260831222414 69 80 7.0 20.0 0.00 0.00 0.00 95 948.9
20260831221913 69 93 9.0 20.0 0.00 0.00 0.00 95 949.0
20260831221412 70 94 9.0 18.0 0.00 0.00 0.00 95 948.8
20260831220354 70 90 7.0 16.0 0.00 0.00 0.00 97 949.1
20260831215853 69 89 6.0 18.0 0.00 0.00 0.00 97 948.8
20260831215352 70 83 7.0 18.0 0.00 0.00 0.00 96 949.0
20260831214335 70 95 6.0 14.0 0.00 0.00 0.00 97 948.9
20260831213834 69 98 7.0 19.0 0.00 0.00 0.00 97 948.9
20260831213333 69 98 8.0 19.0 0.00 0.00 0.00 96 948.7
20260831212832 69 93 6.0 16.0 0.00 0.00 0.00 96 949.0
20260831211815 69 103 9.0 19.0 0.00 0.00 0.00 95 949.0
20260831211314 70 97 9.0 18.0 0.00 0.00 0.00 94 949.0
20260831210813 70 94 7.0 18.0 0.00 0.00 0.00 95 949.1
20260831210312 70 98 8.0 15.0 0.00 0.00 0.00 95 948.8
20260831205811 69 85 8.0 19.0 0.00 0.00 0.00 95 948.8
20260831205310 69 86 9.0 19.0 0.00 0.00 0.00 96 948.9
20260831204809 69 92 9.0 18.0 0.00 0.00 0.00 95 949.0
20260831204308 69 93 7.0 18.0 0.00 0.00 0.00 95 948.9
20260831203807 69 95 8.0 15.0 0.00 0.00 0.00 95 949.3
20260831203306 69 88 7.0 16.0 0.00 0.00 0.00 94 949.1
20260831202805 69 91 8.0 16.0 0.00 0.00 0.00 93 949.1
20260831202306 69 89 6.0 16.0 0.00 0.00 0.00 93 949.6
20260831201802 69 81 7.0 21.0 0.00 0.00 0.00 93 949.4
20260831201301 69 77 6.0 21.0 0.00 0.00 0.00 95 949.4
20260831200800 69 74 7.0 18.0 0.00 0.00 0.00 95 949.1
20260831200259 69 85 7.0 18.0 0.00 0.00 0.00 95 949.3
20260831195758 68 89 6.0 18.0 0.00 0.00 0.00 97 949.1
20260831195256 68 100 8.0 20.0 0.00 0.00 0.00 96 949.2
20260831194755 68 96 7.0 20.0 0.00 0.00 0.00 96 949.3
20260831194254 68 101 8.0 15.0 0.00 0.00 0.00 96 949.3
20260831193753 68 79 6.0 14.0 0.00 0.00 0.00 97 949.5
20260831193252 68 84 5.0 16.0 0.00 0.00 0.00 96 949.6
20260831192751 68 89 5.0 16.0 0.00 0.00 0.00 96 949.5
20260831192250 68 91 7.0 15.0 0.00 0.00 0.00 96 949.5
20260831191749 68 78 6.0 16.0 0.00 0.00 0.00 97 949.4
20260831191248 68 95 8.0 16.0 0.00 0.00 0.00 96 949.4
20260831190747 68 77 7.0 14.0 0.00 0.00 0.00 96 949.3
20260831190246 68 92 6.0 16.0 0.00 0.00 0.00 95 949.3
20260831185745 68 96 7.0 16.0 0.00 0.00 0.00 95 949.2
20260831184212 68 70 7.0 13.0 0.00 0.00 0.00 92 949.6
20260831183711 69 79 7.0 16.0 0.00 0.00 0.00 91 949.1
20260831182654 68 62 9.0 18.0 0.00 0.00 0.00 89 949.1
20260831182153 68 64 6.0 13.0 0.00 0.00 0.00 90 949.1
20260831181652 68 61 6.0 13.0 0.00 0.00 0.00 91 948.7
20260831181150 68 55 6.0 14.0 0.00 0.00 0.00 91 948.7
20260831180649 68 53 7.0 14.0 0.00 0.00 0.00 91 948.9
20260831180148 68 52 7.0 22.0 0.00 0.00 0.00 91 948.7
20260831175646 68 66 6.0 22.0 0.00 0.00 0.00 91 948.9
20260831175145 68 70 7.0 16.0 0.00 0.00 0.00 91 948.7
20260831174644 67 62 8.0 15.0 0.00 0.00 0.00 92 949.0
20260831174143 67 77 8.0 19.0 0.00 0.00 0.00 93 949.0
20260831173642 67 77 7.0 21.0 0.00 0.00 0.00 93 948.7
20260831172109 67 76 8.0 23.0 0.00 0.00 0.00 94 948.4
20260831171608 66 72 8.0 23.0 0.00 0.00 0.00 94 948.3
20260831171106 66 77 9.0 22.0 0.00 0.00 0.00 93 948.1
20260831170605 66 74 10.0 22.0 0.00 0.00 0.00 93 948.0
20260831170104 66 84 9.0 22.0 0.00 0.00 0.00 93 947.7
20260831165603 66 78 8.0 19.0 0.00 0.00 0.00 93 948.0
20260831165102 66 78 9.0 24.0 0.00 0.00 0.00 93 947.7
20260831164601 66 79 10.0 24.0 0.00 0.00 0.00 94 947.9
20260831164100 66 85 9.0 22.0 0.00 0.00 0.00 94 947.7
20260831163559 66 83 13.0 23.0 0.00 0.00 0.00 95 947.5
20260831162542 66 71 10.0 24.0 0.00 0.00 0.00 95 947.2
20260831161524 66 82 10.0 23.0 0.00 0.00 0.00 95 947.5
20260831161023 66 76 9.0 25.0 0.00 0.00 0.00 95 947.3
20260831160522 66 84 9.0 25.0 0.00 0.00 0.00 94 947.3
20260831160021 66 78 11.0 20.0 0.00 0.00 0.00 94 947.5
20260831155520 66 90 10.0 19.0 0.00 0.00 0.00 93 947.5
20260831155019 66 87 9.0 19.0 0.00 0.00 0.00 93 947.7
20260831154518 66 97 10.0 20.0 0.00 0.00 0.00 93 947.7
20260831154017 66 83 8.0 20.0 0.00 0.00 0.00 92 947.6
20260831153516 66 83 8.0 20.0 0.00 0.00 0.00 92 948.0
20260831152458 66 91 11.0 22.0 0.00 0.00 0.00 93 947.9
20260831151957 66 91 9.0 21.0 0.00 0.00 0.00 93 947.9
20260831150424 66 91 9.0 19.0 0.00 0.00 0.00 93 947.7
20260831145407 66 91 7.0 21.0 0.00 0.00 0.00 93 948.2
20260831144905 66 90 9.0 21.0 0.00 0.00 0.00 93 948.0
20260831144404 66 103 10.0 20.0 0.00 0.00 0.00 93 948.1
20260831143903 66 94 9.0 20.0 0.00 0.00 0.00 93 948.4
20260831142846 66 101 9.0 20.0 0.00 0.00 0.00 93 948.4
20260831142344 66 94 7.0 19.0 0.00 0.00 0.00 94 948.3
20260831141843 66 100 7.0 20.0 0.00 0.00 0.00 94 948.5
20260831141342 66 95 8.0 20.0 0.00 0.00 0.00 94 948.2
20260831140841 66 93 11.0 19.0 0.00 0.00 0.00 94 947.9
20260831140340 66 91 11.0 19.0 0.00 0.00 0.00 94 948.1
20260831135839 66 92 9.0 21.0 0.00 0.00 0.00 94 948.1
20260831135338 66 91 7.0 21.0 0.00 0.00 0.00 94 948.1
20260831134837 66 90 6.0 22.0 0.00 0.00 0.00 94 948.2
20260831134335 66 93 7.0 22.0 0.00 0.00 0.00 94 948.3
20260831133834 66 90 9.0 18.0 0.00 0.00 0.00 94 948.3
20260831133333 66 70 6.0 18.0 0.00 0.00 0.00 94 948.4
20260831132832 65 75 9.0 18.0 0.00 0.00 0.00 94 948.2
20260831132331 65 74 10.0 21.0 0.00 0.00 0.00 94 948.3
20260831131830 65 82 8.0 21.0 0.00 0.00 0.00 94 948.2
20260831131329 65 89 8.0 23.0 0.00 0.00 0.00 94 948.2
20260831130828 65 87 10.0 23.0 0.00 0.00 0.00 95 947.8
20260831130327 65 88 11.0 19.0 0.00 0.00 0.00 94 948.2
20260831125309 66 78 6.0 20.0 0.00 0.00 0.00 96 948.1
20260831124808 66 81 8.0 20.0 0.00 0.00 0.00 96 948.1
20260831124307 66 85 10.0 19.0 0.00 0.00 0.00 96 948.2
20260831123806 66 94 7.0 16.0 0.00 0.00 0.00 96 948.3
20260831123305 66 66 6.0 16.0 0.00 0.00 0.00 96 948.3
20260831122804 65 67 7.0 21.0 0.00 0.00 0.00 96 948.0
20260831121231 65 73 9.0 18.0 0.00 0.00 0.00 96 948.6
20260831120729 65 69 8.0 20.0 0.00 0.00 0.00 96 948.5
20260831120228 65 61 6.0 22.0 0.00 0.00 0.00 96 948.4
20260831115727 65 78 11.0 22.0 0.00 0.00 0.00 96 948.7
20260831115226 65 74 9.0 22.0 0.00 0.00 0.00 96 948.7
20260831113653 65 62 9.0 22.0 0.00 0.00 0.00 95 948.8
20260831113152 66 63 10.0 22.0 0.00 0.00 0.00 95 948.7
20260831111619 66 83 6.0 13.0 0.00 0.00 0.00 97 948.9
20260831111118 66 71 7.0 13.0 0.00 0.00 0.00 97 949.0
20260831110617 66 68 6.0 13.0 0.00 0.00 0.00 96 948.9
20260831110117 66 58 6.0 15.0 0.00 0.00 0.00 96 948.9
20260831105615 67 62 6.0 20.0 0.00 0.00 0.00 96 948.9
20260831105114 67 65 8.0 20.0 0.00 0.00 0.00 96 949.2
20260831104057 67 77 10.0 18.0 0.00 0.00 0.00 96 949.1
20260831103557 66 87 9.0 18.0 0.00 0.00 0.00 96 948.9
20260831103055 67 75 8.0 18.0 0.00 0.00 0.00 96 949.2
20260831102554 67 91 8.0 18.0 0.00 0.00 0.00 96 949.3
20260831102053 67 78 10.0 19.0 0.00 0.00 0.00 96 949.4
20260831101552 67 80 6.0 20.0 0.00 0.00 0.00 96 949.6
20260831101052 66 75 8.0 21.0 0.00 0.00 0.00 96 949.4
20260831100551 66 73 10.0 21.0 0.00 0.00 0.00 96 949.5
20260831095534 66 69 8.0 22.0 0.00 0.00 0.00 96 949.4
20260831094001 66 70 8.0 20.0 0.00 0.00 0.00 95 949.6
20260831093459 66 69 8.0 20.0 0.00 0.00 0.00 95 949.7
20260831092958 66 70 8.0 18.0 0.00 0.00 0.00 95 949.4
20260831092458 66 76 9.0 21.0 0.00 0.00 0.00 95 949.9
20260831091956 66 62 9.0 21.0 0.00 0.00 0.00 95 949.5
20260831091456 66 75 7.0 16.0 0.00 0.00 0.00 96 949.4
20260831090954 66 65 8.0 18.0 0.00 0.00 0.00 96 949.5
20260831090454 66 72 7.0 18.0 0.00 0.00 0.00 95 949.5
20260831085952 66 59 8.0 18.0 0.00 0.00 0.00 95 949.9
20260831084935 66 61 7.0 18.0 0.00 0.00 0.00 95 949.8
20260831084435 66 68 9.0 16.0 0.00 0.00 0.00 95 950.0
20260831082902 66 61 7.0 20.0 0.00 0.00 0.00 93 949.6
20260831082401 66 55 7.0 20.0 0.00 0.00 0.00 92 949.4
20260831080826 66 61 6.0 20.0 0.00 0.00 0.00 93 949.7
20260831080326 66 57 6.0 20.0 0.00 0.00 0.00 92 949.6
20260831075825 66 60 6.0 19.0 0.00 0.00 0.00 92 949.5